Time,TemperatureF,DewpointF,PressureIn,WindDirection,WindDirectionDegrees,WindSpeedMPH,WindSpeedGustMPH,Humidity,HourlyPrecipIn,Conditions,Clouds,dailyrainin,SoftwareType,DateUTC
2013-03-28 00:02:00,33.0,25.0,-100.00,South,171,4.0,7.0,73,0.00,,,-99.99,,2013-03-28 06:02:00,
2013-03-28 00:12:00,33.0,26.0,-100.00,South,186,2.0,6.0,75,0.00,,,-99.99,,2013-03-28 06:12:00,
2013-03-28 00:22:00,35.0,25.0,-100.00,SSE,151,7.0,12.0,67,0.00,,,-99.99,,2013-03-28 06:22:00,
2013-03-28 00:32:00,35.0,25.0,-100.00,SE,141,10.0,14.0,67,0.00,,,-99.99,,2013-03-28 06:32:00,
2013-03-28 00:42:00,36.0,25.0,-100.00,SSE,151,12.0,17.0,65,0.00,,,-99.99,,2013-03-28 06:42:00,
2013-03-28 00:52:00,35.0,26.0,-100.00,SSE,165,12.0,15.0,69,0.00,,,-99.99,,2013-03-28 06:52:00,
2013-03-28 01:02:00,-999.0,-99.9,-100.00,SSE,161,12.0,15.0,-999,-99.99,,,-99.99,,2013-03-28 07:02:00,
2013-03-28 01:12:00,34.0,25.0,-100.00,SSE,162,11.0,14.0,71,0.00,,,-99.99,,2013-03-28 07:12:00,
2013-03-28 01:32:00,33.0,25.0,-100.00,SSE,162,9.0,12.0,72,0.00,,,-99.99,,2013-03-28 07:32:00,
2013-03-28 01:42:00,34.0,24.0,-100.00,SSE,158,10.0,15.0,67,0.00,,,-99.99,,2013-03-28 07:42:00,
2013-03-28 01:52:00,33.0,24.0,-100.00,South,169,9.0,13.0,69,0.00,,,-99.99,,2013-03-28 07:52:00,
2013-03-28 02:02:00,33.0,24.0,-100.00,SSE,168,9.0,13.0,67,0.00,,,-99.99,,2013-03-28 08:02:00,
2013-03-28 02:12:00,33.0,24.0,-100.00,SSE,168,9.0,13.0,68,0.00,,,-99.99,,2013-03-28 08:12:00,
2013-03-28 02:21:00,32.0,24.0,-100.00,SSE,168,7.0,11.0,70,0.00,,,-99.99,,2013-03-28 08:21:00,
2013-03-28 02:32:00,32.0,24.0,-100.00,SSE,167,7.0,11.0,70,0.00,,,-99.99,,2013-03-28 08:32:00,
2013-03-28 02:42:00,32.0,23.0,-100.00,South,174,7.0,10.0,70,0.00,,,-99.99,,2013-03-28 08:42:00,
2013-03-28 02:52:00,32.0,23.0,-100.00,South,178,7.0,11.0,69,0.00,,,-99.99,,2013-03-28 08:52:00,
2013-03-28 03:01:00,32.0,23.0,-100.00,South,178,8.0,11.0,69,0.00,,,-99.99,,2013-03-28 09:01:00,
2013-03-28 03:12:00,32.0,23.0,-100.00,South,175,8.0,11.0,69,0.00,,,-99.99,,2013-03-28 09:12:00,
2013-03-28 03:22:00,31.0,23.0,-100.00,South,171,7.0,10.0,70,0.00,,,-99.99,,2013-03-28 09:22:00,
2013-03-28 03:32:00,32.0,23.0,-100.00,South,169,8.0,12.0,69,0.00,,,-99.99,,2013-03-28 09:32:00,
2013-03-28 03:42:00,33.0,22.0,-100.00,SSE,162,9.0,14.0,64,0.00,,,-99.99,,2013-03-28 09:42:00,
2013-03-28 03:52:00,33.0,22.0,-100.00,SSE,154,11.0,14.0,62,0.00,,,-99.99,,2013-03-28 09:52:00,
2013-03-28 04:02:00,32.0,22.0,-100.00,SSE,158,9.0,12.0,66,0.00,,,-99.99,,2013-03-28 10:02:00,
2013-03-28 04:12:00,32.0,22.0,-100.00,SSE,160,9.0,11.0,66,0.00,,,-99.99,,2013-03-28 10:12:00,
2013-03-28 04:22:00,32.0,22.0,-100.00,SSE,162,7.0,11.0,67,0.00,,,-99.99,,2013-03-28 10:22:00,
2013-03-28 04:32:00,31.0,22.0,-100.00,South,182,4.0,8.0,67,0.00,,,-99.99,,2013-03-28 10:32:00,
2013-03-28 04:42:00,32.0,22.0,-100.00,South,182,4.0,7.0,67,0.00,,,-99.99,,2013-03-28 10:42:00,
2013-03-28 04:52:00,32.0,22.0,-100.00,SSE,168,4.0,7.0,65,0.00,,,-99.99,,2013-03-28 10:52:00,
2013-03-28 05:02:00,33.0,21.0,-100.00,SSE,165,6.0,10.0,62,0.00,,,-99.99,,2013-03-28 11:02:00,
2013-03-28 05:12:00,34.0,21.0,-100.00,SSE,155,7.0,15.0,59,0.00,,,-99.99,,2013-03-28 11:12:00,
2013-03-28 05:22:00,34.0,21.0,-100.00,SE,141,9.0,15.0,58,0.00,,,-99.99,,2013-03-28 11:22:00,
2013-03-28 05:32:00,34.0,21.0,-100.00,SE,144,7.0,13.0,60,0.00,,,-99.99,,2013-03-28 11:32:00,
2013-03-28 05:42:00,31.0,21.0,-100.00,South,176,3.0,7.0,66,0.00,,,-99.99,,2013-03-28 11:42:00,
2013-03-28 05:52:00,31.0,22.0,-100.00,SSW,192,4.0,6.0,67,0.00,,,-99.99,,2013-03-28 11:52:00,
2013-03-28 06:02:00,32.0,22.0,-100.00,South,188,7.0,10.0,66,0.00,,,-99.99,,2013-03-28 12:02:00,
2013-03-28 06:12:00,33.0,22.0,-100.00,South,186,7.0,11.0,64,0.00,,,-99.99,,2013-03-28 12:12:00,
2013-03-28 06:22:00,33.0,21.0,-100.00,SSE,164,8.0,12.0,63,0.00,,,-99.99,,2013-03-28 12:22:00,
2013-03-28 06:32:00,33.0,21.0,-100.00,SSE,162,7.0,11.0,62,0.00,,,-99.99,,2013-03-28 12:32:00,
2013-03-28 06:42:00,32.0,21.0,-100.00,SE,140,6.0,10.0,63,0.00,,,-99.99,,2013-03-28 12:42:00,
2013-03-28 06:52:00,33.0,20.0,-100.00,East,96,5.0,7.0,60,0.00,,,-99.99,,2013-03-28 12:52:00,
2013-03-28 07:02:00,33.0,20.0,-100.00,East,97,7.0,11.0,59,0.00,,,-99.99,,2013-03-28 13:02:00,
2013-03-28 07:12:00,33.0,20.0,-100.00,East,97,6.0,11.0,59,0.00,,,-99.99,,2013-03-28 13:12:00,
2013-03-28 07:22:00,32.0,20.0,-100.00,SE,124,4.0,7.0,60,0.00,,,-99.99,,2013-03-28 13:22:00,
2013-03-28 07:32:00,33.0,20.0,-100.00,ESE,107,7.0,10.0,58,-99.99,,,-99.99,,2013-03-28 13:32:00,
2013-03-28 07:52:00,34.0,20.0,-100.00,ESE,107,8.0,12.0,56,0.00,,,-99.99,,2013-03-28 13:52:00,
2013-03-28 08:02:00,34.0,20.0,-100.00,ESE,116,6.0,12.0,56,0.00,,,-99.99,,2013-03-28 14:02:00,
2013-03-28 08:12:00,35.0,21.0,-100.00,ESE,109,7.0,12.0,55,0.00,,,-99.99,,2013-03-28 14:12:00,
2013-03-28 08:22:00,36.0,21.0,-100.00,ESE,116,7.0,12.0,54,0.00,,,-99.99,,2013-03-28 14:22:00,
2013-03-28 08:32:00,37.0,21.0,-100.00,ESE,119,7.0,10.0,52,0.00,,,-99.99,,2013-03-28 14:32:00,
2013-03-28 08:42:00,38.0,21.0,-100.00,ESE,119,7.0,11.0,51,0.00,,,-99.99,,2013-03-28 14:42:00,
2013-03-28 08:51:00,38.0,22.0,-100.00,SE,133,6.0,9.0,52,0.00,,,-99.99,,2013-03-28 14:51:00,
2013-03-28 09:02:00,39.0,22.0,-100.00,SE,141,7.0,10.0,49,0.00,,,-99.99,,2013-03-28 15:02:00,
2013-03-28 09:12:00,39.0,21.0,-100.00,SSE,150,7.0,10.0,48,0.00,,,-99.99,,2013-03-28 15:12:00,
2013-03-28 09:21:00,40.0,22.0,-100.00,SSE,160,8.0,11.0,47,0.00,,,-99.99,,2013-03-28 15:21:00,
2013-03-28 09:32:00,41.0,22.0,-100.00,SSE,161,9.0,12.0,47,0.00,,,-99.99,,2013-03-28 15:32:00,
2013-03-28 09:43:00,41.0,22.0,-100.00,SSE,160,9.0,12.0,47,0.00,,,-99.99,,2013-03-28 15:43:00,
2013-03-28 09:52:00,41.0,22.0,-100.00,SSE,158,8.0,11.0,46,0.00,,,-99.99,,2013-03-28 15:52:00,
2013-03-28 10:02:00,41.0,22.0,-100.00,SSE,162,9.0,12.0,45,0.00,,,-99.99,,2013-03-28 16:02:00,
2013-03-28 10:13:00,-999.0,-99.9,-100.00,SSE,160,9.0,12.0,-999,-99.99,,,-99.99,,2013-03-28 16:13:00,
2013-03-28 10:23:00,43.0,20.0,-100.00,South,178,9.0,13.0,40,0.00,,,-99.99,,2013-03-28 16:23:00,
2013-03-28 10:32:00,44.0,20.0,-100.00,SSW,199,10.0,16.0,38,0.00,,,-99.99,,2013-03-28 16:32:00,
2013-03-28 10:42:00,44.0,21.0,-100.00,SSW,195,11.0,15.0,40,0.00,,,-99.99,,2013-03-28 16:42:00,
2013-03-28 10:52:00,44.0,20.0,-100.00,SSW,198,11.0,15.0,38,0.00,,,-99.99,,2013-03-28 16:52:00,
2013-03-28 11:02:00,44.0,20.0,-100.00,SSW,193,11.0,16.0,39,0.00,,,-99.99,,2013-03-28 17:02:00,
2013-03-28 11:12:00,44.0,21.0,-100.00,SSW,196,9.0,15.0,39,0.00,,,-99.99,,2013-03-28 17:12:00,
2013-03-28 11:22:00,45.0,21.0,-100.00,SSW,198,12.0,16.0,38,0.00,,,-99.99,,2013-03-28 17:22:00,
2013-03-28 11:32:00,46.0,23.0,-100.00,SSW,203,12.0,17.0,40,0.00,,,-99.99,,2013-03-28 17:32:00,
2013-03-28 11:42:00,47.0,22.0,-100.00,SSW,206,12.0,23.0,38,0.00,,,-99.99,,2013-03-28 17:42:00,
2013-03-28 11:52:00,46.0,23.0,-100.00,South,186,11.0,23.0,39,0.00,,,-99.99,,2013-03-28 17:52:00,
2013-03-28 12:02:00,46.0,22.0,-100.00,SSW,209,16.0,22.0,38,0.00,,,-99.99,,2013-03-28 18:02:00,
2013-03-28 12:12:00,46.0,23.0,-100.00,SW,216,14.0,21.0,39,0.00,,,-99.99,,2013-03-28 18:12:00,
2013-03-28 12:22:00,47.0,23.0,-100.00,SW,216,15.0,22.0,38,0.00,,,-99.99,,2013-03-28 18:22:00,
2013-03-28 12:32:00,47.0,23.0,-100.00,SW,219,14.0,21.0,38,0.00,,,-99.99,,2013-03-28 18:32:00,
2013-03-28 12:42:00,46.0,22.0,-100.00,SSW,203,14.0,18.0,38,0.00,,,-99.99,,2013-03-28 18:42:00,
2013-03-28 12:52:00,46.0,21.0,-100.00,SSW,205,13.0,20.0,37,0.00,,,-99.99,,2013-03-28 18:52:00,
2013-03-28 13:02:00,47.0,22.0,-100.00,SSW,198,14.0,21.0,36,0.00,,,-99.99,,2013-03-28 19:02:00,
2013-03-28 13:12:00,47.0,21.0,-100.00,SSW,202,15.0,21.0,34,0.00,,,-99.99,,2013-03-28 19:12:00,
2013-03-28 13:22:00,47.0,23.0,-100.00,SSW,193,11.0,21.0,38,0.00,,,-99.99,,2013-03-28 19:22:00,
2013-03-28 13:32:00,48.0,23.0,-100.00,SSW,200,13.0,19.0,37,0.00,,,-99.99,,2013-03-28 19:32:00,
2013-03-28 13:42:00,48.0,22.0,-100.00,South,191,12.0,21.0,35,0.00,,,-99.99,,2013-03-28 19:42:00,
2013-03-28 13:52:00,48.0,19.0,-100.00,South,186,11.0,18.0,32,0.00,,,-99.99,,2013-03-28 19:52:00,
2013-03-28 14:03:00,47.0,21.0,-100.00,South,191,12.0,16.0,36,0.00,,,-99.99,,2013-03-28 20:03:00,
2013-03-28 14:12:00,48.0,22.0,-100.00,South,179,12.0,19.0,34,0.00,,,-99.99,,2013-03-28 20:12:00,
2013-03-28 14:22:00,49.0,21.0,-100.00,South,174,14.0,21.0,33,0.00,,,-99.99,,2013-03-28 20:22:00,
2013-03-28 14:32:00,49.0,22.0,-100.00,SSW,199,13.0,18.0,34,0.00,,,-99.99,,2013-03-28 20:32:00,
2013-03-28 14:42:00,50.0,20.0,-100.00,South,186,12.0,21.0,30,0.00,,,-99.99,,2013-03-28 20:42:00,
2013-03-28 14:52:00,48.0,20.0,-100.00,SSW,195,15.0,21.0,33,0.00,,,-99.99,,2013-03-28 20:52:00,
2013-03-28 15:02:00,48.0,20.0,-100.00,South,172,12.0,19.0,32,0.00,,,-99.99,,2013-03-28 21:02:00,
2013-03-28 15:12:00,48.0,19.0,-100.00,South,181,12.0,19.0,31,0.00,,,-99.99,,2013-03-28 21:12:00,
2013-03-28 15:22:00,49.0,19.0,-100.00,SSW,193,11.0,15.0,30,0.00,,,-99.99,,2013-03-28 21:22:00,
2013-03-28 15:32:00,49.0,20.0,-100.00,SSW,193,12.0,17.0,31,0.00,,,-99.99,,2013-03-28 21:32:00,
2013-03-28 15:42:00,49.0,19.0,-100.00,South,184,11.0,17.0,30,0.00,,,-99.99,,2013-03-28 21:42:00,
2013-03-28 15:53:00,49.0,20.0,-100.00,South,176,7.0,12.0,32,0.00,,,-99.99,,2013-03-28 21:53:00,
2013-03-28 16:02:00,49.0,21.0,-100.00,SSW,193,9.0,16.0,33,0.00,,,-99.99,,2013-03-28 22:02:00,
2013-03-28 16:12:00,48.0,20.0,-100.00,SSW,198,10.0,16.0,32,0.00,,,-99.99,,2013-03-28 22:12:00,
2013-03-28 16:22:00,49.0,22.0,-100.00,South,186,11.0,19.0,33,0.00,,,-99.99,,2013-03-28 22:22:00,
2013-03-28 16:32:00,49.0,20.0,-100.00,SSE,155,12.0,17.0,31,0.00,,,-99.99,,2013-03-28 22:32:00,
2013-03-28 16:42:00,50.0,20.0,-100.00,SSE,164,8.0,16.0,31,0.00,,,-99.99,,2013-03-28 22:42:00,
2013-03-28 16:52:00,51.0,20.0,-100.00,SSW,192,9.0,16.0,29,0.00,,,-99.99,,2013-03-28 22:52:00,
2013-03-28 17:02:00,50.0,20.0,-100.00,SW,219,9.0,15.0,30,0.00,,,-99.99,,2013-03-28 23:02:00,
2013-03-28 17:12:00,50.0,20.0,-100.00,SSW,200,9.0,13.0,30,0.00,,,-99.99,,2013-03-28 23:12:00,
2013-03-28 17:22:00,50.0,20.0,-100.00,South,171,12.0,19.0,30,0.00,,,-99.99,,2013-03-28 23:22:00,
2013-03-28 17:32:00,48.0,21.0,-100.00,SSE,160,12.0,20.0,34,0.00,,,-99.99,,2013-03-28 23:32:00,
2013-03-28 17:42:00,47.0,24.0,-100.00,South,172,9.0,13.0,39,0.00,,,-99.99,,2013-03-28 23:42:00,
2013-03-28 17:52:00,45.0,26.0,-100.00,South,172,14.0,25.0,46,0.00,,,-99.99,,2013-03-28 23:52:00,
2013-03-28 18:02:00,45.0,24.0,-100.00,SSE,168,18.0,23.0,44,0.00,,,-99.99,,2013-03-29 00:02:00,
2013-03-28 18:12:00,45.0,22.0,-100.00,SSE,161,17.0,22.0,39,0.00,,,-99.99,,2013-03-29 00:12:00,
2013-03-28 18:22:00,44.0,26.0,-100.00,SSE,162,11.0,22.0,50,0.00,,,-99.99,,2013-03-29 00:22:00,
2013-03-28 18:32:00,44.0,25.0,-100.00,SSE,162,8.0,11.0,46,0.00,,,-99.99,,2013-03-29 00:32:00,
2013-03-28 18:42:00,47.0,24.0,-100.00,South,178,6.0,11.0,39,0.00,,,-99.99,,2013-03-29 00:42:00,
2013-03-28 18:52:00,47.0,26.0,-100.00,South,174,9.0,13.0,44,0.00,,,-99.99,,2013-03-29 00:52:00,
2013-03-28 19:02:00,45.0,25.0,-100.00,South,169,8.0,10.0,46,0.00,,,-99.99,,2013-03-29 01:02:00,
2013-03-28 19:12:00,44.0,25.0,-100.00,South,171,8.0,10.0,47,0.00,,,-99.99,,2013-03-29 01:12:00,
2013-03-28 19:22:00,42.0,26.0,-100.00,South,185,4.0,6.0,52,0.00,,,-99.99,,2013-03-29 01:22:00,
2013-03-28 19:32:00,42.0,26.0,-100.00,SSE,167,3.0,7.0,53,0.00,,,-99.99,,2013-03-29 01:32:00,
2013-03-28 19:42:00,42.0,24.0,-100.00,ESE,123,3.0,6.0,50,0.00,,,-99.99,,2013-03-29 01:42:00,
2013-03-28 19:52:00,41.0,24.0,-100.00,SSE,155,2.0,4.0,51,0.00,,,-99.99,,2013-03-29 01:52:00,
2013-03-28 20:02:00,41.0,24.0,-100.00,SE,133,1.0,4.0,50,0.00,,,-99.99,,2013-03-29 02:02:00,
2013-03-28 20:12:00,41.0,24.0,-100.00,SE,124,2.0,5.0,51,0.00,,,-99.99,,2013-03-29 02:12:00,
2013-03-28 20:22:00,40.0,24.0,-100.00,ESE,112,6.0,10.0,53,0.00,,,-99.99,,2013-03-29 02:22:00,
2013-03-28 20:32:00,39.0,25.0,-100.00,East,96,7.0,11.0,56,0.00,,,-99.99,,2013-03-29 02:32:00,
2013-03-28 20:42:00,39.0,25.0,-100.00,East,97,9.0,13.0,57,0.00,,,-99.99,,2013-03-29 02:42:00,
2013-03-28 20:52:00,39.0,25.0,-100.00,East,92,9.0,11.0,56,0.00,,,-99.99,,2013-03-29 02:52:00,
2013-03-28 21:02:00,40.0,24.0,-100.00,East,100,9.0,12.0,52,0.00,,,-99.99,,2013-03-29 03:02:00,
2013-03-28 21:12:00,40.0,24.0,-100.00,ESE,106,9.0,12.0,52,0.00,,,-99.99,,2013-03-29 03:12:00,
2013-03-28 21:22:00,39.0,24.0,-100.00,East,95,10.0,13.0,54,0.00,,,-99.99,,2013-03-29 03:22:00,
2013-03-28 21:32:00,39.0,24.0,-100.00,East,88,9.0,12.0,54,0.00,,,-99.99,,2013-03-29 03:32:00,
2013-03-28 21:42:00,39.0,24.0,-100.00,East,92,9.0,12.0,54,0.00,,,-99.99,,2013-03-29 03:42:00,
2013-03-28 21:52:00,40.0,23.0,-100.00,ESE,103,12.0,17.0,50,0.00,,,-99.99,,2013-03-29 03:52:00,
2013-03-28 22:03:00,40.0,24.0,-100.00,ESE,104,12.0,17.0,52,0.00,,,-99.99,,2013-03-29 04:03:00,
2013-03-28 22:12:00,40.0,24.0,-100.00,ESE,102,12.0,16.0,52,0.00,,,-99.99,,2013-03-29 04:12:00,
2013-03-28 22:22:00,40.0,23.0,-100.00,ESE,106,12.0,16.0,51,0.00,,,-99.99,,2013-03-29 04:22:00,
2013-03-28 22:33:00,39.0,23.0,-100.00,East,100,11.0,14.0,52,0.00,,,-99.99,,2013-03-29 04:33:00,
2013-03-28 22:42:00,39.0,24.0,-100.00,ESE,102,9.0,13.0,54,0.00,,,-99.99,,2013-03-29 04:42:00,
2013-03-28 22:52:00,40.0,23.0,-100.00,East,100,9.0,14.0,51,0.00,,,-99.99,,2013-03-29 04:52:00,
2013-03-28 23:02:00,39.0,24.0,-100.00,East,99,10.0,14.0,55,0.00,,,-99.99,,2013-03-29 05:02:00,
2013-03-28 23:12:00,39.0,24.0,-100.00,East,95,10.0,14.0,54,0.00,,,-99.99,,2013-03-29 05:12:00,
2013-03-28 23:23:00,39.0,24.0,-100.00,East,95,11.0,14.0,54,0.00,,,-99.99,,2013-03-29 05:23:00,
2013-03-28 23:32:00,39.0,24.0,-100.00,East,93,11.0,14.0,56,0.00,,,-99.99,,2013-03-29 05:32:00,
2013-03-28 23:43:00,38.0,24.0,-100.00,East,96,10.0,13.0,57,0.00,,,-99.99,,2013-03-29 05:43:00,
2013-03-28 23:52:00,38.0,25.0,-100.00,East,100,9.0,12.0,58,0.00,,,-99.99,,2013-03-29 05:52:00,